Zurück zum Katalog

FALCON 9 R/B

AktivHEO
NORAD 58699·ROCKET BODY·🇺🇸 United States

Gestartet Jan 3, 2024 von Cape Canaveral Space Force Station

Loading…

Nächste Überflüge (nächste 24 Stunden)

TLE

AktuellSource: Space-Track

Epoche: Sep 13, 2026, 18:49 UTC

1 58699U 24003B   26256.78418616 -.00000130  00000-0  16923-4 0  9998
2 58699  27.1678  32.3708 7696070 257.8617  15.5766  1.74596674 16752

Verfolge FALCON 9 R/B in Echtzeit mit AllMySat

Download on the App Store